Location: Malmö
(55.6050°N, 13.0038°E)
Time: 23:39:21
(UTC+01:00)

ISS - Pass Details

Date: 01 August 2017
Orbit: 402 x 407 km, 51.6° (Epoch: 22 January)

Event Time Altitude Azimuth Distance (km) Brightness Sun altitude
Rises 21:56:03 0° 262° (W) 2,324 0.6 -5.5°
Reaches altitude 10° 21:58:12 10° 255° (WSW) 1,461 -0.6 -5.8°
Maximum altitude 22:01:18 41° 183° (S) 604 -3.2 -6.1°
Drops below altitude 10° 22:04:23 10° 112° (ESE) 1,458 -1.6 -6.4°
Enters shadow 22:05:04 - 109° (ESE) 1,723 -1.2 -6.4°
